Springfield, OH

11:00 PM EDT on March 25, 2017 (GMT -0400)
Springfield-Beckley Municipal

Weather History for KSGH - January, 2013

Change the Weather History Date:

Thursday, January 3, 2013

  Actual Average (KFFO) Record (KFFO)
Temperature  
Mean Temperature 16 °F -  
Max Temperature 28 °F 37 °F 62 °F (2004)
Min Temperature 3 °F 22 °F -1 °F (2014)
Degree Days  
Heating Degree Days 50    
Moisture  
Dew Point 11 °F    
Average Humidity 73    
Maximum Humidity 88    
Minimum Humidity 51    
Precipitation  
Precipitation 0.00 in - - ()
Sea Level Pressure  
Sea Level Pressure 30.27 in    
Wind  
Wind Speed 6 mph (WSW)    
Max Wind Speed 18 mph    
Max Gust Speed -    
Visibility 6 miles    
Events      
Averages and records for this station are not official NWS values.
T = Trace of Precipitation, MM = Missing Value Source: NWS Daily Summary

Daily Weather History Graph

Daily Weather History Graph

Search for Another Location

Airport or City:

Trip Planner

Search our weather history database for the weather conditions in past years. The results will help you decide how hot, cold, wet, or windy it might be!

Date:

Astronomy

Jan. 03, 2013 Rise Set
Actual Time 7:56 AM EST 5:23 PM EST
Civil Twilight 7:26 AM EST 5:53 PM EST
Nautical Twilight 6:52 AM EST 6:27 PM EST
Astronomical Twilight 6:20 AM EST 7:00 PM EST
Moon 11:57 PM EST (1/3) 11:08 AM EST (1/3)
Length of Visible Light 10h 26m
Length of Day
9h 26m
Waning Gibbous, 65% of the Moon is Illuminated
Jan 3
Waning Gibbous
Jan 4
Last Quarter
Jan 11
New
Jan 18
First Quarter
Jan 26
Full

Hourly Weather History & Observations

Time (EST) Temp. Windchill Dew Point Humidity Pressure Visibility Wind Dir Wind Speed Gust Speed Precip Events Conditions
12:22 AM 6.8 °F -0.1 °F 1.4 °F 79% 30.21 in 4.0 mi SSW 3.5 mph - N/A   Clear
12:56 AM 6.1 °F -0.9 °F 2.1 °F 84% 30.27 in 5.0 mi SSW 3.5 mph - N/A   Clear
1:56 AM 3.0 °F - -0.9 °F 84% 30.27 in 3.0 mi Calm Calm - N/A   Clear
2:56 AM 6.1 °F - 2.1 °F 84% 30.27 in 5.0 mi Calm Calm - N/A   Clear
3:56 AM 3.0 °F - -0.9 °F 84% 30.26 in 4.0 mi Calm Calm - N/A   Clear
4:56 AM 8.1 °F - 4.1 °F 84% 30.25 in 6.0 mi Calm Calm - N/A   Clear
5:56 AM 10.0 °F - 7.2 °F 88% 30.26 in 6.0 mi Calm Calm - N/A   Clear
6:56 AM 8.1 °F - 4.1 °F 84% 30.28 in 6.0 mi Calm Calm - N/A   Clear
7:56 AM 10.0 °F - 4.1 °F 77% 30.27 in 5.0 mi Calm Calm - N/A   Haze
8:56 AM 12.0 °F - 5.0 °F 73% 30.27 in 5.0 mi Calm Calm - N/A   Haze
9:56 AM 17.1 °F - 7.2 °F 65% 30.28 in 6.0 mi Calm Calm - N/A   Haze
10:56 AM 20.1 °F 12.3 °F 8.1 °F 60% 30.28 in 6.0 mi WSW 5.8 mph - N/A   Haze
11:56 AM 25.2 °F 15.1 °F 9.1 °F 51% 30.26 in 6.0 mi WSW 10.4 mph - N/A   Haze
12:56 PM 26.1 °F 14.5 °F 12.0 °F 55% 30.24 in 6.0 mi WSW 13.8 mph - N/A   Haze
1:44 PM 26.6 °F 14.3 °F 15.8 °F 64% 30.18 in 6.0 mi West 16.1 mph - N/A   Haze
1:56 PM 28.0 °F 15.3 °F 17.1 °F 63% 30.24 in 5.0 mi West 18.4 mph - N/A   Haze
2:04 PM 28.4 °F 16.2 °F 17.6 °F 64% 30.19 in 5.0 mi West 17.3 mph - N/A   Haze
2:56 PM 27.1 °F 15.4 °F 18.1 °F 69% 30.25 in 5.0 mi West 15.0 mph - N/A   Haze
3:56 PM 25.2 °F 13.3 °F 18.1 °F 75% 30.27 in 5.0 mi WSW 13.8 mph - N/A   Haze
4:56 PM 24.1 °F 14.4 °F 17.1 °F 75% 30.29 in 5.0 mi WSW 9.2 mph - N/A   Haze
5:56 PM 26.1 °F 15.6 °F 19.0 °F 75% 30.29 in 6.0 mi WSW 11.5 mph - N/A   Haze
6:56 PM 26.1 °F 15.0 °F 19.0 °F 75% 30.31 in 7.0 mi WSW 12.7 mph - N/A   Overcast
7:56 PM 27.1 °F 16.4 °F 19.0 °F 72% 30.32 in 6.0 mi West 12.7 mph - N/A   Haze
8:13 PM 26.6 °F 15.2 °F 19.4 °F 74% 30.26 in 6.0 mi West 13.8 mph - N/A   Haze
8:56 PM 27.1 °F 14.9 °F 19.0 °F 72% 30.32 in 6.0 mi West 16.1 mph - N/A   Haze
9:56 PM 27.1 °F 17.5 °F 19.0 °F 72% 30.32 in 7.0 mi West 10.4 mph - N/A   Overcast
10:56 PM 27.1 °F 17.5 °F 20.1 °F 75% 30.32 in 6.0 mi West 10.4 mph - N/A   Haze
11:56 PM 27.1 °F 15.9 °F 19.0 °F 72% 30.32 in 7.0 mi West 13.8 mph - N/A   Overcast